Home > Weather > Ica > Past weeks

Flag for Peru Weather for the Past 2 Weeks in Ica, Ica, Peru

Now
73 °F

Overcast.


Feels Like: 73 °F
Forecast: 70 / 92 °F
Wind: 6 mph from Southwest

Location: Pisco Airport

Current Time: Feb 13, 2016 at 6:30:02 AM

Latest Report: Feb 13, 2016 at 6:00 AM


Visibility: 5 mi

Pressure: 29.83 "Hg

Humidity: 83%

Dew point: 68 °F

Location of IcaLocation

Historic Weather in Ica — Graph

°F

Ica Temperature Yesterday

Maximum temperature yesterday: 84 °F (at 4:00 PM)
Minimum temperature yesterday: 72 °F (at 3:00 AM)
Average temperature yesterday: 76 °F

High & Low Weather Summary for the Past Weeks

 TemperatureHumidityPressure
High84 °F (Jan 29, 3:00 PM)94% (Jan 31, 1:00 AM)32.19 "Hg (Jan 31, 1:00 AM)
Low70 °F (Feb 5, 6:00 AM)55% (Feb 11, 2:00 PM)29.71 "Hg (Feb 7, 5:00 PM)
Average76 °F79%29.85 "Hg
* Reported Jan 29 5:00 AM — Feb 13 5:00 AM, Ica, Weather by CustomWeather, © 2016

Note: Actual official high and low records may vary slightly from our data, if they occured in-between our weather recording intervals... More about our weather records

Advertising

Ica Weather History for the Previous 24 Hours

 ConditionsComfort  
Time TempWeatherWind HumidityBarometerVisibility
5:00 AM
Sat, Feb 13
73 °FOvercast.6 mph83%29.80 "HgN/A
4:00 AM73 °FOvercast.7 mph83%29.80 "HgN/A
3:00 AM73 °FOvercast.10 mph83%29.80 "HgN/A
2:00 AM73 °FOvercast.9 mph83%29.80 "HgN/A
1:00 AM73 °FOvercast.9 mph83%29.83 "HgN/A
12:00 AM75 °FOvercast.12 mph78%29.86 "HgN/A
11:00 PM
Fri, Feb 12
75 °FOvercast.10 mph78%29.86 "HgN/A
10:00 PM73 °FPassing clouds.13 mph83%29.86 "HgN/A
9:00 PM73 °FPassing clouds.16 mph89%29.86 "HgN/A
8:00 PM75 °FPassing clouds.18 mph78%29.86 "HgN/A
7:00 PM77 °FPassing clouds.20 mph74%29.83 "HgN/A
6:00 PM79 °FPartly sunny.16 mph70%29.80 "HgN/A
5:00 PM82 °FPartly sunny.12 mph62%29.80 "HgN/A
4:00 PM84 °FPartly sunny.9 mph55%29.80 "HgN/A
3:00 PM82 °FScattered clouds.8 mph58%29.83 "HgN/A
2:00 PM82 °FSunny.9 mph62%29.83 "Hg10 mi
1:00 PM81 °FScattered clouds.10 mph70%29.86 "HgN/A
12:00 PM81 °FPartly sunny.7 mph66%29.86 "HgN/A
11:00 AM81 °FScattered clouds.8 mph66%29.89 "HgN/A
10:00 AM77 °FOvercast.6 mph74%29.89 "HgN/A
9:00 AM75 °FOvercast.5 mph78%29.89 "HgN/A
8:00 AM73 °FOvercast.3 mph78%29.89 "HgN/A
7:00 AM72 °FOvercast.3 mph83%29.89 "HgN/A
6:00 AM72 °FOvercast.10 mph83%29.86 "Hg5 mi
Weather by CustomWeather, © 2016

See weather overviewHow to use our weather pages